Location: Altavilla Irpina
(41.0000°N, 14.7833°E)
Time: 00:18:25
(UTC+00:00)

Helios 1B rocket - Pass Details

Date: 19 May 2025
Orbit: 497 x 502 km, 98.2° (Epoch: 23 June)

Event Time Altitude Azimuth Distance (km) Brightness Sun altitude
Exits shadow 19:17:00 - 168° (SSE) 1,785 4.5 -10.5°
Reaches altitude 10° 19:17:13 10° 168° (SSE) 1,692 4.4 -10.5°
Maximum altitude 19:20:52 85° 257° (WSW) 506 2.1 -11.1°
Drops below altitude 10° 19:24:33 10° 346° (NNW) 1,708 5.7 -11.6°
Sets 19:26:38 0° 347° (NNW) 2,598 6.7 -11.9°
